Location: Deerlick Astronomy Village
(33.5614°N, 82.7631°W)
Time: 19:08:44
(UTC-04:00)

Hubble Space Telescope - Visible Passes

Search period start: 11 August 2020 00:00
Search period end: 21 August 2020 00:00
Orbit: 536 x 540 km, 28.5° (Epoch: 11 August)

Date Brightness Start Highest point End Pass type
(mag) Time Alt. Az. Time Alt. Az. Time Alt. Az.
11 Aug 2.7 04:49:11 19° SE 04:49:11 19° SE 04:51:18 10° ESE visible
12 Aug 2.8 04:39:02 19° SE 04:39:02 19° SE 04:40:44 10° ESE visible
12 Aug 1.5 06:14:22 10° WSW 06:18:10 40° S 06:22:03 10° ESE visible
13 Aug 3.0 04:28:55 17° ESE 04:28:55 17° ESE 04:30:09 10° ESE visible
13 Aug 1.4 06:04:14 14° WSW 06:07:26 41° S 06:11:20 10° ESE visible
14 Aug 3.3 04:18:48 14° ESE 04:18:48 14° ESE 04:19:30 10° ESE visible
14 Aug 1.4 05:54:08 19° WSW 05:56:41 40° S 06:00:35 10° ESE visible
15 Aug 3.7 04:08:46 10° ESE 04:08:46 10° ESE 04:08:50 10° ESE visible
15 Aug 1.4 05:44:06 25° SW 05:45:57 39° S 05:49:49 10° ESE visible
16 Aug 1.4 05:34:07 31° SW 05:35:12 37° S 05:39:01 10° ESE visible
17 Aug 1.5 05:24:14 34° SSW 05:24:27 34° S 05:28:12 10° ESE visible
18 Aug 1.9 05:14:27 29° S 05:14:27 29° S 05:17:21 10° SE visible
19 Aug 2.6 05:04:48 19° SSE 05:04:48 19° SSE 05:06:27 10° SE visible
20 Aug 3.3 04:55:16 11° SE 04:55:16 11° SE 04:55:29 10° SE visible
